Date,TemperatureHighF,TemperatureAvgF,TemperatureLowF,DewpointHighF,DewpointAvgF,DewpointLowF,HumidityHigh,HumidityAvg,HumidityLow,PressureMaxIn,PressureMinIn,WindSpeedMaxMPH,WindSpeedAvgMPH,GustSpeedMaxMPH,PrecipitationSumIn
2013-2-1,30.4,27.1,23.6,11.2,9.7,7.3,53,47,40,30.09,29.83,6,2,0,0.00
2013-2-2,31.9,26.4,21.0,26.4,4.3,-99.9,89,57,41,30.25,30.04,8,2,0,0.00
2013-2-3,34.9,28.7,25.7,26.1,-26.4,-99.9,89,82,67,30.04,29.68,6,1,0,0.00
2013-2-4,32.1,26.9,23.8,21.9,-9.4,-99.9,85,59,39,29.95,29.70,8,2,0,0.00
2013-2-5,29.3,25.6,23.8,27.5,18.1,11.1,93,73,57,30.02,29.90,4,0,0,0.00
2013-2-6,38.9,32.0,27.9,30.8,24.8,9.8,95,77,46,30.27,29.89,6,0,0,0.00
2013-2-7,27.9,24.6,21.6,20.5,10.5,7.9,77,55,45,30.48,30.27,3,0,0,0.00
2013-2-8,33.4,31.9,26.9,32.2,28.5,20.7,100,87,77,30.46,29.41,15,2,18,0.00
2013-2-10,28.2,24.0,20.3,26.7,-2.2,-99.9,100,98,94,30.38,30.36,0,0,0,0.00
2013-2-11,46.2,40.5,31.8,45.8,40.1,31.8,100,99,98,30.18,29.60,8,1,0,0.00
2013-2-12,44.1,37.9,30.3,41.0,31.6,25.9,99,80,56,29.89,29.60,7,1,0,0.00
2013-2-13,41.1,33.6,28.4,27.8,25.8,23.6,89,74,53,29.88,29.64,6,0,0,0.00
2013-2-14,42.5,33.2,24.4,34.1,27.7,22.4,95,82,48,30.02,29.67,6,0,0,0.00
2013-2-15,47.0,29.2,22.4,38.6,10.4,-99.9,97,90,68,30.04,30.01,7,0,0,0.00
2013-2-16,39.3,34.0,32.4,34.8,31.8,30.7,97,92,74,29.91,29.61,11,0,13,0.00
2013-2-17,33.4,24.2,18.6,32.1,17.6,4.3,95,77,48,29.65,29.31,12,4,16,0.00
2013-2-18,22.1,17.7,16.1,6.5,4.2,2.7,57,55,50,29.96,29.66,12,5,0,0.00
2013-2-20,37.0,34.6,32.2,20.7,17.4,13.5,52,49,45,29.66,29.63,8,4,0,0.00
2013-2-22,36.0,33.6,31.9,27.0,26.0,25.1,81,74,66,30.34,30.31,6,0,0,0.00
2013-2-23,39.3,35.1,30.1,37.2,30.7,26.3,96,84,69,30.32,29.81,10,1,14,0.00
2013-2-24,43.1,39.6,33.4,42.3,38.6,32.4,97,96,94,29.81,29.56,14,2,16,0.00
2013-2-25,42.5,35.4,29.1,35.8,29.1,25.9,95,79,59,30.24,30.04,8,0,12,0.00
2013-2-26,45.5,35.0,25.7,34.8,28.2,24.2,96,78,47,30.32,30.11,7,0,0,0.00
2013-2-27,41.6,39.6,38.8,40.5,36.4,34.7,96,88,85,30.11,29.74,11,3,16,0.02